Simultaneous Nadir Overpasses (SNOs) Predictions

Prediction of SNOs between AQUA and METOP-A Satellite Orbit:

Table of predicted SNOs for the next 14.0 days since TLE Epoch: 7/19/2013
Index Date (AQUA) Time (AQUA) Lat,Lon (AQUA) SZA (AQUA ) Date (METOP-A) Time (METOP-A) Lat,Lon (METOP-A) SZA (METOP-A ) Distance(km) Time Diff (sec)
1 07/19/2013 22:43:41 -73.71, 13.64 126.92 07/19/2013 22:42:29 -73.62, 12.94 126.96 23.89 72
2 07/19/2013 23:33:12 73.88,-179.09 53.27 07/19/2013 23:33:03 73.89,-179.08 53.29 1.98 9
3 07/20/2013 00:22:39 -73.97, -11.65 126.63 07/20/2013 00:23:44 -73.95, -11.62 126.66 2.26 65
4 07/22/2013 18:17:55 -73.85, 79.79 126.22 07/22/2013 18:16:48 -73.83, 79.83 126.23 2.45 67
5 07/22/2013 19:07:24 73.91,-112.73 53.86 07/22/2013 19:07:26 73.90,-112.66 53.85 2.67 2
6 07/22/2013 19:56:52 -74.05, 54.60 125.98 07/22/2013 19:58:04 -74.11, 55.17 125.97 18.33 72
7 07/25/2013 13:52:07 -73.85, 146.23 125.63 07/25/2013 13:51:12 -73.83, 146.25 125.63 1.61 55
8 07/25/2013 14:41:36 73.92, -46.29 54.46 07/25/2013 14:41:50 73.90, -46.25 54.44 2.42 14
9 07/25/2013 15:31:13 -74.52, 119.96 124.88 07/25/2013 15:32:20 -74.50, 122.59 125.01 77.90 67
10 07/28/2013 09:26:19 -73.87,-147.36 124.97 07/28/2013 09:25:36 -73.83,-147.35 125.00 3.85 43
11 07/28/2013 10:15:47 73.89, 20.22 55.07 07/28/2013 10:16:14 73.90, 20.14 55.07 2.40 27
12 07/31/2013 05:00:30 -73.85, -80.88 124.31 07/31/2013 04:59:59 -73.87, -80.84 124.29 2.64 31
13 07/31/2013 05:49:59 73.94, 86.57 55.79 07/31/2013 05:50:37 73.94, 86.65 55.79 2.36 38




NCC Satellite Simultaneous Nadir Overpasses (SNOs) Prediction Service
